Regional Weather Roundup
Issued by NWS Charleston, WV

Home | Current Version | Previous Version | Graphics & Text | Print | Product List | Glossary On
Versions: 1 2 3 4 5 6 7 8 9 10 11 12 13 14 15 16 17 18 19 20 21 22 23 24 25 26 27 28 29 30 31 32 33 34 35 36 37 38 39 40 41 42 43 44 45 46 47 48 49 50
000
ASUS41 KRLX 091910
RWRRLX
West Virginia Regional Weather Roundup
National Weather Service Charleston WV
300 PM EDT WED JUL 09 2014

Note: "fair" indicates few or no clouds below 12,000 feet with no
significant weather and/or obstructions to visibility.

WVZ003-092000-
Northern Panhandle of West Virginia

CITY           SKY/WX    TMP DP  RH WIND       PRES   REMARKS
WHEELING       MOSUNNY   79  57  46 W10G20    29.93F
$$

WVZ009-092000-
Northwest West Virginia

CITY           SKY/WX    TMP DP  RH WIND       PRES   REMARKS
PARKERSBURG    PTSUNNY   80  60  50 W10       29.96F
$$

WVZ006-092000-
Western West Virginia

CITY           SKY/WX    TMP DP  RH WIND       PRES   REMARKS
HUNTINGTON     PTSUNNY   85  60  42 W6        29.94F
$$

WVZ015-092000-
West Central West Virginia

CITY           SKY/WX    TMP DP  RH WIND       PRES   REMARKS
CHARLESTON     PTSUNNY   83  63  50 SW7G20    29.94F
$$

WVZ031-092000-
North Central West Virginia

CITY           SKY/WX    TMP DP  RH WIND       PRES   REMARKS
CLARKSBURG     SUNNY     82  57  42 W14       29.95F
MORGANTOWN     MOSUNNY   82  55  39 SW10G21   29.95F
$$

WVZ035-042-045-092000-
South Central West Virginia

CITY           SKY/WX    TMP DP  RH WIND       PRES   REMARKS
BECKLEY        PTSUNNY   75  62  64 W7        30.05F
BLUEFIELD      CLOUDY    71  64  78 W9        30.08F
LEWISBURG      CLOUDY    79  60  53 W5        30.03F
$$

WVZ047-092000-
Northern Mountains of West Virginia

CITY           SKY/WX    TMP DP  RH WIND       PRES   REMARKS
ELKINS         PTSUNNY   80  56  43 SW13G18   29.99F
$$

WVZ052-092000-
Eastern Panhandle of West Virginia

CITY           SKY/WX    TMP DP  RH WIND       PRES   REMARKS
MARTINSBURG    MOSUNNY   88  62  41 W9G17     29.88F
PETERSBURG     PTSUNNY   83  51  33 SW7       29.92F
$$


USA.gov is the U.S. government's official web portal to all federal, state and local government web resources and services.